Location: Diebersbach
(48.5163°N, 8.0558°E)
Time: 12:37:16
(UTC+00:00)

Cosmos 1242 Rocket - Pass Details

Date: 20 June 2021
Orbit: 446 x 483 km, 81.2° (Epoch: 30 July)

Event Time Altitude Azimuth Distance (km) Brightness Sun altitude
Rises 01:53:15 0° 333° (NNW) 2,525 6.6 -11.2°
Reaches altitude 10° 01:55:50 10° 314° (NW) 1,649 5.4 -10.9°
Maximum altitude 01:58:17 18° 271° (W) 1,252 4.3 -10.7°
Enters shadow 01:59:56 14° 239° (WSW) 1,441 4.4 -10.6°
